EHI
0 0 0 0 0 0 0 0 0 0 0 0 0 0 0 0 0 0 0 0 0 0 0 0 0 0 0 0 0 0 0 0 0 0 0 0 0 0
0 0 0 0 0 0 0 0 0 0 0 0 0 0 0 0 0 0 0 0 0 0 0 0 0 0 0 0 0 0 0 0 0 0 0 0 0 0
0 0 0 0 0 0 0 0 0 0 0 0 0 0 0 0 0 0 0 0 0 0 0 0 0 0 0 0 0 0 0 0 0 0 0 0 0 0
0 0 0 0 0 0 0 0 0 0 0 0 0 0 0 0 0 0 0 0 0 0 0 0 0 0 0 0 0 0 0 0 0 0 0 0 0 0
0 0 0 0 0 0 0 0 0 0 0 0 0 0 0 0 0 0 0 0 0 0 0 0 0 0 0 0 0 0 0 0 0 0 0 0 0 0
0 0 0 0 0 0 0 0 0 0 0 0 0 0 0 0 0 0 0 0 0 0 0 0 0 0 0 0 0 0 0 0 0 0 0 0 0 0
0 0 0 0 0 0 0 0 0 0 0 0 0 0 0 0 0 0 0 0 0 0 0 0 0 0 0 0 0 0 0 0 0 0 0 0 0 0
0 0 0 0 0 0 0 0 0 0 0 0 0 0 0 0 0 0 0 0 0 0 0 0 0 0 0 0 0 0 0 0 0 0 0 0 0 0
0 0 0 0 0 0 0 0 0 0 0 0 0 0 0 0 0 0 0 0 0 0 0 0 0 0 0 0 0 0 0 0 0 0 0 0 0 0
0 0 0 0 0 0 0 0 0 0 0 0 0 0 0 0 0 0 0 0 0 0 0 0 0 0 0 0 0 0 0 0 0 0 0 0 0 0
0 0 0 0 0 0 0 0 0 0 0 0 0 0 0 0 0 0 0 0 0 0 0 0 0 0 0 0 0 0 0 0 0 0 0 0 0 0
0 0 0 0 0 0 0 0 0 0 0 0 0 0 0 0 0 0 0 0 0 0 0 0 0 0 0 0 0 0 0 0 0 0 0 0 0 0
0 0 0 0 0 0 0 0 0 0 0 0 0 0 0 0 0 0 0 0 0 0 0 0 0 0 0 0 0 0 0 0 0 0 0 0 0 0
0 0 0 0 0 0 0 0 0 0 0 0 0 0 0 0 0 0 0 0 0 0 0 0 0 0 0 0 0 0 0 0 0 0 0 0 0 0
0 0 0 0 0 0 0 0 0 0 0 0 0 0 0 0 0 0 0 0 0 0 0 0 0 0 0 0 0 0 0 0 0 0 0 0 0 0
0 0 0 0 0 0 0 0 0 0 0 0 0 0 0 0 0 0 0 0 0 0 0 0 0 0 0 0 0 0 0 0 0 0 0 0 0 0
0 0 0 0 0 0 0 0 0 0 0 0 0 0 0 0 0 0 0 0 0 0 0 0 0 0 0 0 0 0 0 0 0 0 0 0 0 0
0 0 0 0 0 0 0 0 0 0 0 0 0 0 0 0 0 0 0 0 0 0 0 0 0 0 0 0 0 0 0 0 0 0 0 0 0 0
0 0 0 0 0 0 0 0 0 0 0 0 0 0 0 0 0 0 0 0 0 0 0 0 0 0 0 0 0 0 0 0 0 0 0 0 0 0
0 0 0 0 0 0 0 0 0 0 0 0 0 0 0 0 0 0 0 0 0 0 0 0 0 0 0 0 0 0 0 0 0 0 0 0 0 0
0 0 0 0 0 0 0 0 0 0 0 0 0 0 0 0 0 0 0 0 0 0 0 0 0 0 0 0 0 0 0 0 0 0 0 0 0 0
0 0 0 0 0 0 0 0 0 0 0 0 0 0 0 0 0 0 0 0 0 0 0 0 0 0 0 0 0 0 0 0 0 0 0 0 0 0
0 0 0 0 0 0 0 0 0 0 0 0 0 0 0 0 0 0 0 0 0 0 0 0 0 0 0 0 0 0 0 0 0 0 0 0 0 0
Wind_Speed
3 3 2 2 3 3 3 3 3 3 3 3 3 3 3 3 5 4 5 6 8 8 8 8 8 9 10 10 11 13 14 15 16 17 18 19 20 21
3 3 3 3 3 3 3 4 4 4 4 3 3 4 4 5 5 5 5 8 8 9 9 9 9 9 9 10 11 12 13 14 15 16 17 18 18 19
3 4 5 4 3 3 3 3 4 4 6 5 3 3 4 6 6 5 5 5 5 8 9 9 10 10 10 11 11 12 13 14 15 16 17 18 18 19
5 5 6 4 5 4 4 5 5 5 6 7 4 3 5 5 6 6 5 5 5 8 9 10 10 10 10 11 11 12 13 14 14 15 16 17 18 19
6 6 7 5 6 5 5 5 5 5 5 6 6 3 4 4 4 5 5 5 5 6 8 9 9 10 10 10 11 12 13 13 14 14 15 16 17 18
7 7 7 7 8 7 6 6 6 5 5 6 6 5 5 4 3 4 5 4 4 5 6 6 7 8 9 10 10 11 12 13 13 13 14 15 16 17
7 7 8 10 11 9 7 6 6 5 5 5 6 5 5 4 5 3 4 5 5 4 4 4 4 4 5 7 9 10 10 11 12 13 14 14 15 16
8 8 8 10 11 12 13 12 9 8 8 6 6 7 8 7 5 5 4 4 4 2 2 4 3 5 5 5 7 9 10 11 12 13 13 14 15 15
9 8 8 8 9 8 10 11 12 13 14 10 10 10 9 7 6 6 6 6 6 4 3 5 4 5 5 5 8 9 10 11 12 13 13 14 14 15
10 10 10 10 9 9 8 9 9 9 10 10 10 11 10 9 8 7 7 6 6 5 4 5 5 5 5 5 8 10 9 10 11 12 12 13 14 14
10 10 10 11 12 11 9 10 10 10 10 12 13 13 13 12 9 5 5 5 6 5 5 5 5 5 5 5 6 9 9 9 10 10 11 12 12 12
8 8 12 13 13 12 9 9 11 11 8 7 8 9 10 10 11 10 8 7 6 5 5 5 4 3 4 3 3 4 5 7 8 8 9 10 10 8
8 7 8 12 14 14 12 10 13 11 7 7 7 7 7 7 7 8 9 8 8 8 5 5 4 4 4 4 3 3 4 4 4 4 6 8 10 9
9 8 8 11 13 13 10 12 14 10 7 6 7 7 7 7 7 8 9 10 10 11 8 7 6 6 5 6 5 3 3 4 4 4 3 4 6 8
9 12 12 11 10 10 12 14 11 8 7 8 9 9 8 8 6 5 7 8 10 11 10 10 10 8 7 7 6 5 4 4 4 4 4 4 4 4
9 9 11 11 10 10 9 8 8 8 8 9 9 8 6 6 6 6 6 5 5 7 9 11 11 11 9 9 8 7 6 4 3 4 4 4 4 4
5 4 5 5 6 6 6 7 7 7 8 8 8 8 7 7 7 6 6 6 6 7 6 5 7 9 10 8 7 8 7 6 6 5 4 4 5 5
5 6 7 8 8 8 8 7 7 7 8 8 8 8 8 7 7 6 6 7 8 8 7 6 5 5 5 7 10 9 8 7 6 6 5 5 5 5
7 9 9 9 9 8 8 8 8 7 7 7 8 8 8 7 7 7 7 7 8 8 8 7 6 7 8 8 8 12 9 7 6 6 6 6 6 5
8 9 9 9 8 8 8 8 8 7 7 7 7 8 8 7 7 7 7 8 8 8 8 7 8 9 10 9 6 5 11 9 7 7 6 5 3 2
8 9 9 9 8 8 8 8 8 8 8 7 7 8 8 8 8 8 8 9 9 8 9 9 9 10 7 5 5 5 5 9 8 6 6 5 4 4
8 9 9 9 9 8 8 7 8 8 8 7 7 7 7 8 9 10 8 8 8 8 10 8 6 6 7 8 8 8 6 5 6 6 5 4 4 6
9 9 8 8 8 7 7 8 9 8 7 7 7 7 7 7 7 8 8 8 8 8 8 7 5 6 7 8 8 7 7 6 4 4 3 2 4 3
Wind_Direction
230 226 226 231 220 220 216 205 213 261 278 269 275 289 293 292 289 292 288 285 284 277 272 267 259 250 243 240 238 236 231 226 225 225 225 225 223 223
229 231 238 239 233 223 219 218 215 228 258 260 257 276 291 292 291 290 286 287 283 277 272 266 258 254 250 246 241 236 231 227 224 222 222 223 223 223
247 239 248 245 243 238 226 221 220 216 247 267 254 266 273 279 291 290 283 279 278 273 272 266 258 250 249 247 243 239 234 230 228 226 224 223 221 221
251 247 254 251 246 243 234 233 231 222 234 265 269 264 259 270 278 286 287 282 277 277 274 270 262 253 247 245 244 240 236 233 231 229 227 226 224 222
247 245 251 247 252 247 239 240 241 238 229 248 267 261 264 268 276 280 282 281 281 276 275 271 265 259 251 246 245 240 236 234 232 231 231 228 226 223
247 244 245 241 245 247 244 241 240 243 238 244 260 265 265 267 260 269 281 276 283 286 279 272 265 262 257 251 246 241 236 235 234 233 232 230 228 225
255 248 246 245 243 240 242 241 236 240 242 245 256 262 263 259 254 251 267 282 280 265 277 273 266 264 261 255 250 245 240 237 236 235 232 230 228 227
257 258 256 256 255 251 248 244 233 235 241 241 249 253 260 256 253 248 253 266 277 251 260 277 267 268 262 254 251 249 245 241 237 235 233 231 229 226
251 256 260 257 250 254 257 258 251 242 235 236 246 250 255 250 243 247 239 239 249 255 257 274 262 263 261 258 253 253 251 247 241 236 233 231 229 227
247 246 250 259 255 247 254 260 259 254 244 238 242 249 251 250 239 245 252 253 256 252 229 259 264 262 265 259 252 250 251 250 245 238 233 231 229 226
251 246 242 251 254 245 246 255 263 264 254 242 240 247 249 246 234 231 234 237 255 254 211 233 258 264 262 258 250 243 246 249 247 241 235 231 226 221
257 250 241 241 249 245 240 244 255 261 262 263 255 256 255 253 236 226 230 235 246 256 218 214 241 246 268 253 252 246 243 244 246 246 239 232 221 214
255 256 249 238 241 245 238 238 244 252 261 261 264 264 260 253 245 232 226 228 234 242 224 204 233 231 246 272 272 254 246 250 247 243 237 229 219 209
251 254 252 246 243 246 242 241 244 248 252 253 256 257 254 250 246 239 232 230 235 244 241 219 235 238 245 257 264 260 248 244 242 243 239 219 219 219
248 249 253 255 255 254 247 244 243 240 238 242 248 251 249 251 251 248 242 236 240 244 244 232 234 240 240 247 253 255 261 253 233 233 231 224 217 206
248 255 256 256 252 253 257 250 239 233 231 240 247 253 253 247 244 240 244 237 239 247 238 232 230 230 235 238 245 250 245 244 232 225 226 231 227 218
248 250 249 248 249 249 249 249 244 236 235 238 242 248 249 247 246 236 232 230 233 245 246 228 224 227 232 233 237 241 242 242 236 226 224 235 234 221
230 243 248 247 248 249 250 250 243 238 237 236 238 240 243 244 245 235 226 228 236 241 243 238 219 216 225 234 225 237 238 237 231 219 218 229 237 222
226 243 247 248 248 247 247 247 248 246 238 234 236 238 239 239 238 236 231 231 236 240 241 233 220 219 230 240 225 211 225 229 221 217 216 221 232 223
232 243 247 247 246 247 247 247 249 248 239 236 236 235 233 233 235 235 232 231 234 237 238 230 222 220 227 237 237 219 211 219 218 218 218 218 224 200
243 244 248 249 247 245 245 245 246 245 241 235 235 235 231 229 232 234 233 232 232 236 237 236 230 221 228 232 235 231 220 212 216 218 207 203 202 194
253 250 249 247 245 245 244 243 244 244 242 238 237 237 233 229 233 234 231 231 229 230 238 242 232 210 210 220 231 236 230 212 211 215 211 207 196 198
259 256 253 248 244 241 240 239 241 243 241 239 238 237 233 231 231 232 233 233 234 232 233 233 223 215 218 220 228 231 228 214 200 196 204 257 238 233